OBJECT AH, 68447

Orbit data source: Space-Track

You're viewing an Uncataloged Satellite

Recently launched and/or uncataloged satellites may have evolving metadata. Metadata may include but not limited to: Owner, Maufacturer, Bus, Motor, and Mission.

OBJECT AH, 68447 is a satellite in SSO that was launched on Mon, 30 Mar 2026 UTC via an FALCON 9 launch vehicle from the Air Force Western Test Range (AFWTR). Unknown objects in Earth's orbit typically refer to objects detected orbiting the Earth but have not yet been identified or cataloged. These objects could be anything from previously untracked satellites, spent rocket stages, debris from satellite collisions, or even natural meteoroids temporarily captured by Earth's gravity.

Loading next visibility...
Identifier
68447, 2026-067AH
Orbit
SSO
Country
Flag of TBDTBD
Related business
None
Manufacturer
Unknown
Mission
Operational spacecraft
Bus & Motor
Unknown
Mass
Unknown
Launch date (UTC)
2026-03-30 (1 month ago)
Launch vehicle
FALCON 9
Launch site
Air Force Western Test Range (AFWTR)
Object type
Unknown
Shape & HBR
Unknown shape, 1.1 m
Radar Cross Section
RCS unknown

Expand to show TLE details & history
Last TLE update: 13 hours ago

TLE from 13 hours ago
0 OBJECT AH
1 68447U 26067AH  26127.13800691  .00006071  00000-0  29857-3 0  9994
2 68447  97.4505  86.2110 0002957 114.7527 245.4015 15.18379397  5716
Epoch: 2026-05-07T03:18Z
TLE epoch observation values (Epoch: 2026-05-07T03:18:43.797Z)
Latitude
-0°
Longitude
171.54006°
Altitude
514.674 km
Speed
7.606 km/s
True Right ascension
05h 44m 50s
True Declination
0° 00' 00"
Sunlit
Object was in daylight at epoch
Visualization orbit readout
Latitude
Unknown
Longitude
Unknown
Altitude
Unknown
Speed
Unknown
Apparent Right ascension
Unknown
Apparent Declination
Unknown
Sunlit
N/A
Visualization observer readout
Local Sidereal Time
00:08:45
Azimuth
Unknown
Elevation
Unknown
Doppler factor
Unknown
Orbital elements
Apogee altitude
509.744 km
Perigee altitude
505.672 km
Semi-major axis
6,885.845 km
Eccentricity
0.0003
Inclination
97.4505°
RAAN
86.211°
Arg. of periapsis
114.7527°
True anomaly
245.3707°
Mean anomaly
245.4015°
Eccentric anomaly
245.3861°
Mean motion
3.79846 °/min
Orbital period
94.78 mins
BSTAR
0.00029857
Loading maneuver chart data...
Computing Atmospheric mass density...
Loading historical data...
Loading historical data...
Loading historical data...
Loading historical data...
Loading historical data...
Loading historical data...
Loading historical data...

Documentation

Showing up to 5 results
|